[TLELIST] Archives

 

[TLELIST] Current TLEs

April 22nd 2024 PDT

HST 1 20580U 90037B 24113.01568836 .00012949 00000-0 62988-3 0 9993 2 20580 28.4699 1.2484 0002471 133.6675 226.4122 15.16877151668752 ISS (ZARYA) 1 25544U 98067A 24113.34884220 .00032660 00000-0 56494-3 0 9990 2 25544 51.6393 232.2772 0004631 92.0510 3.0658 15.50634351449883 CXO 1 25867U 99040B 24114.98765664 .00000954 00000-0 00000-0 0 9991 2 25867 39.9917 159.0971 8937982 292.6126 1.5471 0.37815853 14355 ...Continue Reading

[TLELIST] Current TLEs

April 21st 2024 PDT

HST 1 20580U 90037B 24112.09457118 .00010222 00000-0 49580-3 0 9995 2 20580 28.4700 7.4112 0002567 126.5641 233.5188 15.16849344668610 ISS (ZARYA) 1 25544U 98067A 24112.38269120 .00029812 00000-0 51791-3 0 9999 2 25544 51.6384 237.0671 0004722 87.4128 10.8899 15.50559183449734 CXO 1 25867U 99040B 24112.33278554 .00000940 00000-0 00000+0 0 9999 2 25867 39.9529 159.3198 8942329 292.4515 0.0893 0.37815290 25505 ...Continue Reading

[TLELIST] Current TLEs

April 21st 2024 PDT

HST 1 20580U 90037B 24112.09457118 .00010222 00000-0 49580-3 0 9995 2 20580 28.4700 7.4112 0002567 126.5641 233.5188 15.16849344668610 ISS (ZARYA) 1 25544U 98067A 24112.38269120 .00029812 00000-0 51791-3 0 9999 2 25544 51.6384 237.0671 0004722 87.4128 10.8899 15.50559183449734 CXO 1 25867U 99040B 24112.33278554 .00000940 00000-0 00000+0 0 9999 2 25867 39.9529 159.3198 8942329 292.4515 0.0893 0.37815290 25505 ...Continue Reading

[TLELIST] Current TLEs

April 20th 2024 PDT

HST 1 20580U 90037B 24110.91025451 .00016475 00000-0 80481-3 0 9996 2 20580 28.4695 15.3361 0002664 113.1373 246.9500 15.16827025668178 ISS (ZARYA) 1 25544U 98067A 24111.14160880 .00026599 00000-0 46456-3 0 9996 2 25544 51.6399 243.2230 0004811 83.2147 282.8994 15.50471139449544 CXO 1 25867U 99040B 24112.33278554 .00000940 00000-0 00000+0 0 9999 2 25867 39.9529 159.3198 8942329 292.4515 0.0893 0.37815290 25505 ...Continue Reading

[TLELIST] Current TLEs

April 20th 2024 PDT

HST 1 20580U 90037B 24110.91025451 .00016475 00000-0 80481-3 0 9996 2 20580 28.4695 15.3361 0002664 113.1373 246.9500 15.16827025668178 ISS (ZARYA) 1 25544U 98067A 24111.14160880 .00026599 00000-0 46456-3 0 9996 2 25544 51.6399 243.2230 0004811 83.2147 282.8994 15.50471139449544 CXO 1 25867U 99040B 24112.33278554 .00000940 00000-0 00000+0 0 9999 2 25867 39.9529 159.3198 8942329 292.4515 0.0893 0.37815290 25505 ...Continue Reading

[TLELIST] Current TLEs

April 20th 2024 PDT

HST 1 20580U 90037B 24110.91025451 .00016475 00000-0 80481-3 0 9996 2 20580 28.4695 15.3361 0002664 113.1373 246.9500 15.16827025668178 ISS (ZARYA) 1 25544U 98067A 24111.14160880 .00026599 00000-0 46456-3 0 9996 2 25544 51.6399 243.2230 0004811 83.2147 282.8994 15.50471139449544 CXO 1 25867U 99040B 24112.33278554 .00000940 00000-0 00000+0 0 9999 2 25867 39.9529 159.3198 8942329 292.4515 0.0893 0.37815290 25505 ...Continue Reading

[TLELIST] Current TLEs

April 20th 2024 PDT

HST 1 20580U 90037B 24110.91025451 .00016475 00000-0 80481-3 0 9996 2 20580 28.4695 15.3361 0002664 113.1373 246.9500 15.16827025668178 ISS (ZARYA) 1 25544U 98067A 24111.14160880 .00026599 00000-0 46456-3 0 9996 2 25544 51.6399 243.2230 0004811 83.2147 282.8994 15.50471139449544 CXO 1 25867U 99040B 24112.33278554 .00000940 00000-0 00000+0 0 9999 2 25867 39.9529 159.3198 8942329 292.4515 0.0893 0.37815290 25505 ...Continue Reading

[TLELIST] Current TLEs

April 19th 2024 PDT

HST 1 20580U 90037B 24110.12069755 .00011555 00000-0 56237-3 0 9990 2 20580 28.4695 20.6181 0002671 107.1246 252.9639 15.16800468668315 ISS (ZARYA) 1 25544U 98067A 24109.87569424 .00025888 00000-0 45352-3 0 9994 2 25544 51.6387 249.4981 0004825 77.1403 58.5009 15.50400337449349 CXO 1 25867U 99040B 24112.33278554 .00000940 00000-0 00000+0 0 9999 2 25867 39.9529 159.3198 8942329 292.4515 0.0893 0.37815290 25505 ...Continue Reading

[TLELIST] Current TLEs

April 19th 2024 PDT

HST 1 20580U 90037B 24110.12069755 .00011555 00000-0 56237-3 0 9990 2 20580 28.4695 20.6181 0002671 107.1246 252.9639 15.16800468668315 ISS (ZARYA) 1 25544U 98067A 24109.87569424 .00025888 00000-0 45352-3 0 9994 2 25544 51.6387 249.4981 0004825 77.1403 58.5009 15.50400337449349 CXO 1 25867U 99040B 24112.33278554 .00000940 00000-0 00000+0 0 9999 2 25867 39.9529 159.3198 8942329 292.4515 0.0893 0.37815290 25505 ...Continue Reading

[TLELIST] Current TLEs

April 18th 2024 PDT

HST 1 20580U 90037B 24108.87054358 .00011457 00000-0 55801-3 0 9999 2 20580 28.4696 28.9793 0002655 93.6300 266.4596 15.16772606667861 ISS (ZARYA) 1 25544U 98067A 24109.41781315 .00027290 00000-0 47792-3 0 9998 2 25544 51.6383 251.7688 0005046 73.5951 24.7412 15.50379259449272 CXO 1 25867U 99040B 24109.68742308 .00000930 00000-0 00000+0 0 9995 2 25867 39.8987 159.5880 8946259 292.2469 359.9679 0.37811468 25493 ...Continue Reading
  • This mailing list is a public mailing list - anyone may join or leave, at any time.
  • This mailing list is announce-only.

International Space Station (ISS) / Hubble Space Telescope (HST) / Chandra X-Ray Observatory Orbital Data via EMAIL

Privacy Policy:

Private list